{"data":{"norad_id":45453,"epoch":"2026-05-24T23:27:36.389664Z","epoch_age_seconds":73690,"freshness":"FRESH","line1":"1 45453U 20020AF  26144.97750451  .00001235  00000+0  12511-3 0  9993","line2":"2 45453  88.9303 236.3601 0005828  75.9469 284.2408 14.90256607336929","mean_motion":14.90256607,"eccentricity":0.0005828,"inclination_deg":88.9303,"raan_deg":236.3601,"arg_perigee_deg":75.9469,"mean_anomaly_deg":284.2408,"bstar":0.00012511,"rev_number":33692,"period_min":96.627654139298,"perigee_km":593.0696481135,"apogee_km":601.20002496617,"semimajor_km":6975.2718365398,"source":"CELESTRAK","updated_at":"2026-05-25T13:38:22.347249Z"}}